User: anonymous   Login
Location: Crocus Hill
(18.2167°N, 63.0667°W)
Time: 12:54:50
(UTC+00:00)
Language:

Cosmos 1174 - Orbit

View from above orbital plane
View from above orbital plane
View from above satellite
View from above satellite

Ground track
Ground track

The orbit data is extracted from the following two-line orbital elements,

1 11765U 80030A   20098.86658517 +.00000636 +00000-0 +43744-4 0  9997
2 11765 066.0886 003.9078 0540202 050.4146 314.3382 14.39656693051918
Epoch (UTC): 07 April 2020 20:47:52
Eccentricity: 0.0540202
inclination: 66.0886°
perigee height: 374 km
apogee height: 1145 km
right ascension of ascending node: 3.9078°
argument of perigee: 50.4146°
revolutions per day: 14.39656693
mean anomaly at epoch: 314.3382°
orbit number at epoch: 5191

The dashed part of the orbit path shows where the satellite is in the earth's shadow,  

DLR